Regional Weather Roundup
Issued by NWS Portland, ME

Home | Current Version | Previous Version | Text Only | Print | Product List | Glossary On
Versions: 1 2 3 4 5 6 7 8 9 10 11 12 13 14 15 16 17 18 19 20 21 22 23 24 25 26 27 28 29 30 31 32 33 34 35 36 37 38 39 40 41 42 43 44 45 46 47 48 49 50
000
ASUS41 KGYX 211810
RWRGYX
WEATHER ROUNDUP FOR MAINE AND NEW HAMPSHIRE
NATIONAL WEATHER SERVICE GRAY ME
200 PM EDT MON AUG 21 2017

MEZ002-005-006-010-012-015-018-020-021-024-026-027-029-211900-
MAINE

CITY           SKY/WX    TMP DP  RH WIND       PRES   REMARKS
PORTLAND       PTSUNNY   84  63  49 VRB7      30.07F
6HR MIN TEMP:  66; 6HR MAX TEMP:  86;

SANFORD        SUNNY     85  62  46 W12       30.09F
BAR HARBOR     MOSUNNY   79  64  60 S14       30.05F
WISCASSET      SUNNY     84  60  44 VRB6G17   30.07F
6HR MIN TEMP:  67; 6HR MAX TEMP:  84;

ROCKLAND       SUNNY     79  62  56 SW8       30.05F
FRYEBURG       MOSUNNY   83  64  52 SW7       30.07F
6HR MIN TEMP:  63; 6HR MAX TEMP:  85;

LEWISTONAUBURN MOSUNNY   83  63  50 SW8       30.06F
AUGUSTA        MOSUNNY   82  61  48 SW8       30.06F
6HR MIN TEMP:  66; 6HR MAX TEMP:  83;

WATERVILLE     SUNNY     81  65  58 SW9       30.02F
BANGOR         PTSUNNY   84  59  42 W12       30.03F
6HR MIN TEMP:  66; 6HR MAX TEMP:  84;

GREENVILLE       N/A     78  58  49 VRB5      30.04F
6HR MIN TEMP:  67; 6HR MAX TEMP:  79;

MILLINOCKET    CLOUDY    81  60  48 VRB5      30.01F
6HR MIN TEMP:  68; 6HR MAX TEMP:  81;

HOULTON        CLOUDY    81  63  54 SW8       29.96F
PRESQUE ISLE   CLOUDY    81  58  45 W17G23    29.95F
6HR MIN TEMP:  67; 6HR MAX TEMP:  82;

FRENCHVILLE    MOSUNNY   79  58  48 W13G28    29.94S
6HR MIN TEMP:  63; 6HR MAX TEMP:  80;

CARIBOU        CLOUDY    83  57  41 SW16G26   29.93S
6HR MIN TEMP:  67; 6HR MAX TEMP:  83;

$$

NHZ002-005-008-009-011-012-014-211900-
NEW HAMPSHIRE

CITY           SKY/WX    TMP DP  RH WIND       PRES   REMARKS
PORTSMOUTH     PTSUNNY   85  61  43 SW9       30.08F
ROCHESTER      SUNNY     84  62  47 VRB5      30.09F
6HR MIN TEMP:  64; 6HR MAX TEMP:  85;

NASHUA         MOSUNNY   84  65  52 W3        30.11F
MANCHESTER     PTSUNNY   84  60  44 W6        30.09F
6HR MIN TEMP:  63; 6HR MAX TEMP:  84;

CONCORD        MOSUNNY   84  62  47 W7        30.10F
6HR MIN TEMP:  62; 6HR MAX TEMP:  86;

LACONIA        MOSUNNY   82  63  52 SW9       30.10F
PLYMOUTH       FAIR      81  60  48 W7        30.09F
BERLIN         MOSUNNY   81  59  47 SW9       30.10F
6HR MIN TEMP:  57; 6HR MAX TEMP:  81;

WHITEFIELD     SUNNY     80  60  50 W12G17    30.10F
6HR MIN TEMP:  58; 6HR MAX TEMP:  80;

JAFFREY        MOSUNNY   81  60  48 VRB5      30.16F
6HR MIN TEMP:  64; 6HR MAX TEMP:  83;

KEENE            N/A    N/A N/A N/A MISG        N/A
LEBANON        SUNNY     85  60  42 SW7       30.09F
6HR MIN TEMP:  58; 6HR MAX TEMP:  85;

MT WASHINGTON  FOG       52  52 100 W37G44      N/A  VSB 1/8
6HR MIN TEMP:  49; 6HR MAX TEMP:  53;

$$

VTZ005-007-008-211900-
VERMONT

CITY           SKY/WX    TMP DP  RH WIND       PRES   REMARKS
ST JOHNSBURY     N/A     80  60  50 MISG      30.07F
MONTPELIER     SUNNY     80  59  48 W9        30.14F
BURLINGTON     MOSUNNY   84  65  52 SW9       30.06F
$$

MAZ007-012-024-CTZ003-RIZ002-NYZ038-NYZ072-211900-
SOUTHERN NEW ENGLAND AND NY

CITY           SKY/WX    TMP DP  RH WIND       PRES   REMARKS
BOSTON         PTSUNNY   86  59  39 SW12      30.10F
WORCESTER      MOSUNNY   81  54  39 W13G20    30.16F
NANTUCKET      MOSUNNY   74  69  85 SW12      30.15F
PROVIDENCE     PTSUNNY   86  61  42 VRB3      30.13F
HARTFORD       PTSUNNY   86  64  47 VRB5      30.12F
ALBANY         PTSUNNY   83  64  52 S6        30.12S
NEW YORK CITY  PTSUNNY   87  61  41 SW15      30.14F
$$

ANZ081-ANZ082-ANZ150-NHZ014-MEZ023>029-211900-
COASTAL MARINE OBSERVATIONS

STATION/POSITION TIME  TEMP    WIND        PRES    WAVE
                       AIR SEA DIR/SP/G            HT/PER
                 (UTC) (F)     (DEG/KT/KT) (MB)    (FT/S)
MOUNT DESERT ROC 1800   62                 1018.3F
MATINICUS ROCK   1700   63     240/ 18/ 19 1018.6F
ISLE OF SHOALS   1700   77     190/ 14/ 14 1019.3F
JEFFREYS LEDGE   1706      65                N/A     2/ 6
CASHES LEDGE BUO 1750   72 69              1019.2F   2/ 6
GEORGES BANK BUO 1650   67 65              1020.0    2/ 6
$$

.............KEY..............
   WCI - WIND CHILL
   TC  - TEMPERATURE IN CELSIUS
   VSB - VISIBILITY IN MILES
   HX  - HEAT INDEX
   FAIR- INDICATES FEW OR NO CLOUDS BELOW 12,000 FT, WITH NO
         SIGNIFICANT WEATHER AND/OR OBSTRUCTIONS TO VISIBILITY.





USA.gov is the U.S. government's official web portal to all federal, state and local government web resources and services.